Vorticity
nan nan nan nan nan nan nan nan nan nan nan nan nan nan nan nan nan nan nan nan nan nan nan nan nan nan nan nan nan nan nan nan nan nan nan nan nan nan nan nan nan nan nan nan nan nan nan
nan 10 6 7 8 8 7 9 12 12 8 6 5 6 7 7 7 6 6 6 6 6 6 7 7 9 9 6 9 8 2 4 9 8 8 5 6 4 9 10 4 8 12 11 8 6 nan
nan 20 18 7 7 9 8 9 11 10 10 8 8 7 8 8 6 6 6 7 7 7 7 7 9 9 8 10 -2 9 12 4 3 5 12 11 5 2 6 8 12 10 10 12 16 11 nan
nan 8 23 23 6 7 8 9 10 10 8 10 11 8 7 7 7 7 6 8 8 7 7 9 9 9 7 12 6 1 9 11 6 6 7 6 10 13 7 2 9 13 13 12 11 13 nan
nan 8 9 21 21 7 7 8 10 12 8 8 10 9 7 7 8 9 10 10 6 8 9 9 8 8 8 10 14 12 10 6 7 10 10 8 8 9 10 10 4 7 7 9 9 11 nan
nan 7 7 5 22 21 7 8 11 11 10 10 7 8 8 8 8 11 14 8 5 8 13 8 6 6 13 12 14 10 9 9 3 9 10 10 8 5 6 9 8 5 7 5 7 8 nan
nan 9 8 6 18 24 12 8 10 9 10 10 9 10 11 9 7 9 8 4 8 14 11 7 1 -0 4 8 8 13 10 8 6 5 9 7 6 8 5 2 4 3 5 4 8 8 nan
nan 10 8 9 8 13 26 19 10 9 9 10 11 12 12 9 8 7 2 5 9 10 11 12 4 4 -0 4 7 10 12 10 11 4 3 7 15 8 6 8 5 4 5 4 4 10 nan
nan 9 10 10 9 10 21 24 17 10 10 10 11 11 11 10 6 5 8 7 8 6 11 17 14 11 14 12 9 10 6 7 8 10 9 2 10 12 4 5 9 8 6 6 1 5 nan
nan 10 12 10 9 11 8 13 25 22 11 11 12 11 9 4 5 8 12 13 6 5 10 13 12 12 14 9 21 17 5 2 7 12 6 11 8 9 9 5 9 7 9 7 7 7 nan
nan 8 10 11 12 13 11 6 2 26 23 12 13 11 7 -4 3 10 11 14 6 3 8 14 7 7 15 10 10 15 13 10 10 7 4 7 21 15 8 9 3 10 11 11 12 7 nan
nan 9 10 10 14 15 13 6 3 16 23 19 14 9 1 -5 5 15 10 3 5 8 14 8 7 9 9 7 0 9 17 12 10 13 10 6 0 15 19 18 6 8 9 13 15 18 nan
nan 9 11 10 13 20 17 4 3 14 31 22 13 7 -2 3 14 11 3 2 9 7 12 11 9 10 8 8 8 5 12 10 4 12 14 14 4 7 14 11 14 9 8 10 13 13 nan
nan 9 10 12 15 17 14 8 2 18 31 21 14 4 -1 7 16 3 0 9 8 8 9 9 13 9 10 9 9 6 5 15 8 1 12 7 15 17 8 7 7 12 4 2 9 9 nan
nan 8 9 10 14 6 27 23 -3 15 32 22 4 3 9 15 7 3 6 9 9 8 12 9 6 11 10 9 11 11 6 10 17 9 1 7 7 11 7 17 6 3 16 3 1 13 nan
nan 9 8 10 7 24 31 11 5 21 28 12 -0 12 17 13 3 2 5 9 8 11 11 9 10 9 6 13 11 11 10 7 13 12 -0 3 11 11 15 9 8 10 12 11 5 10 nan
nan 8 9 7 9 34 23 5 9 22 22 9 3 12 16 7 2 6 10 10 11 9 6 5 7 6 10 12 9 7 6 12 20 17 6 1 8 6 11 18 12 9 5 5 6 10 nan
nan 9 10 6 11 26 20 9 10 17 23 12 4 14 12 4 3 8 12 8 8 11 8 5 6 6 13 13 5 7 12 6 18 22 15 1 6 10 9 12 15 12 7 4 7 9 nan
nan 9 10 8 15 16 13 11 14 22 31 12 8 12 14 5 5 8 9 9 8 10 5 7 12 11 7 3 10 11 6 16 12 10 11 6 4 9 17 14 20 14 7 10 0 -1 nan
nan 9 10 8 10 13 16 9 4 31 37 0 8 9 9 8 10 12 9 10 10 11 8 6 7 9 9 12 11 11 10 17 11 7 9 3 4 6 1 6 11 19 11 4 -1 6 nan
nan 8 10 9 9 9 14 14 10 34 22 -2 10 11 11 12 8 9 7 10 9 12 15 10 11 13 5 10 11 10 12 14 15 10 3 -1 9 11 13 13 12 13 11 8 3 -0 nan
nan 9 9 9 7 13 11 8 9 38 27 2 12 8 11 14 15 10 7 6 6 6 9 8 9 14 6 6 7 12 8 9 12 12 8 4 3 5 22 30 18 8 9 8 8 12 nan
nan 9 9 9 7 13 12 11 6 26 24 6 7 11 15 14 11 9 12 12 7 7 8 7 4 2 12 13 9 16 15 11 13 11 5 7 5 10 19 15 4 15 17 5 8 10 nan
nan 8 9 9 8 12 11 10 11 12 19 21 10 10 10 9 11 6 9 17 18 12 6 13 16 7 5 13 15 5 12 17 14 8 12 9 8 8 8 10 10 10 17 19 11 5 nan
nan 8 9 8 9 12 11 12 10 8 21 26 11 11 10 14 11 6 8 12 17 16 12 13 16 9 10 13 13 7 7 8 13 10 9 14 7 10 13 10 8 10 12 16 11 9 nan
nan 8 9 8 8 12 12 12 11 8 22 25 10 10 12 12 10 10 13 15 9 8 13 14 9 11 12 14 12 10 10 10 6 6 15 14 10 9 9 14 10 5 7 9 11 10 nan
nan 9 9 8 7 11 13 12 11 10 25 23 10 9 10 9 8 12 13 10 11 11 10 13 11 10 11 11 10 11 13 11 12 11 10 7 11 10 6 7 10 13 9 13 13 9 nan
nan 10 9 8 7 10 13 13 11 9 24 25 11 11 9 8 10 10 12 10 8 10 11 10 9 10 13 10 8 11 12 10 11 12 9 8 8 9 10 8 14 13 12 14 7 10 nan
nan nan nan nan nan nan nan nan nan nan nan nan nan nan nan nan nan nan nan nan nan nan nan nan nan nan nan nan nan nan nan nan nan nan nan nan nan nan nan nan nan nan nan nan nan nan nan
CAPE
16 22 16 5 40 62 61 76 74 76 36 13 0 1 6 9 9 0 0 0 0 0 0 5 22 34 31 11 0 0 0 0 0 3 6 20 10 0 0 0 0 0 0 0 0 0 0
84 32 26 7 22 54 57 51 72 91 66 35 22 16 10 4 10 2 0 0 0 0 0 0 0 37 21 6 0 0 0 0 0 0 0 10 5 3 5 0 0 0 0 0 0 0 0
78 70 47 16 32 57 50 70 80 83 64 60 50 42 36 10 8 0 1 15 3 0 0 0 0 1 15 0 0 0 2 0 0 0 0 28 19 35 18 0 0 0 0 0 0 3 0
40 30 91 42 58 45 60 65 85 108 87 53 69 64 43 31 7 6 12 19 26 11 18 22 0 8 2 0 0 0 0 0 0 0 0 0 1 0 18 10 0 0 21 1 0 0 0
29 21 35 47 65 76 77 74 81 93 115 83 78 73 58 44 43 52 54 29 10 21 29 26 4 10 0 0 0 0 0 0 0 0 0 0 0 0 5 19 9 5 3 12 2 0 15
37 43 29 51 37 69 104 108 89 95 115 99 98 77 56 50 45 50 55 27 1 0 11 27 6 4 0 0 0 0 0 0 0 0 0 0 0 0 2 41 13 1 4 2 1 0 7
36 39 43 19 122 155 67 122 102 100 111 98 76 70 56 44 46 37 5 0 0 0 32 0 0 0 0 0 0 0 0 0 0 0 3 0 1 9 0 0 0 0 0 1 0 0 2
71 40 34 34 19 21 65 125 103 104 99 90 85 73 79 56 50 56 1 3 0 0 3 0 0 0 0 0 0 0 0 1 9 4 0 1 7 0 0 0 11 2 0 0 0 0 18
61 62 60 46 50 17 14 146 128 100 112 102 94 71 69 63 76 17 0 1 0 0 1 7 0 0 0 0 0 1 0 0 0 8 1 0 0 0 0 0 8 7 0 0 1 0 2
53 87 75 60 80 33 50 41 32 123 102 90 87 87 59 57 15 0 4 0 0 0 1 0 3 12 3 0 0 1 9 0 17 4 0 0 0 0 0 0 3 6 0 0 0 9 13
77 78 100 94 100 72 71 29 19 21 99 101 97 95 55 0 0 0 0 0 0 2 0 0 10 0 5 2 3 0 0 14 9 7 9 0 1 0 0 0 0 0 0 0 7 7 23
86 94 107 125 133 101 76 30 23 14 110 102 98 88 45 15 0 0 0 0 0 0 0 1 0 16 16 22 14 6 2 11 11 17 10 0 2 2 0 0 0 0 0 0 16 67 54
90 93 136 134 208 104 72 24 10 6 130 128 99 73 33 0 0 0 0 0 0 2 0 2 5 12 7 10 12 24 21 30 14 5 8 30 3 1 1 12 3 26 27 32 35 54 9
82 88 188 167 109 185 140 27 0 15 163 123 79 58 15 0 0 0 0 0 1 0 0 2 5 0 20 1 22 31 26 20 26 7 0 0 0 0 0 1 0 0 0 44 9 2 6
102 113 194 152 126 125 172 35 2 17 123 123 108 40 6 8 0 0 3 4 0 0 0 4 7 12 25 15 13 28 23 7 0 2 0 0 0 0 0 0 60 3 26 0 33 35 4
99 97 100 99 73 134 33 0 0 14 125 101 74 1 4 2 0 0 6 0 0 0 1 6 26 12 3 1 6 47 7 0 0 0 0 0 5 6 1 0 3 108 73 40 5 53 27
106 95 116 81 64 132 22 38 76 31 132 53 0 1 7 3 4 6 4 2 0 1 0 15 29 30 1 0 0 0 0 0 0 0 0 2 21 1 0 18 0 25 149 43 14 0 5
106 85 78 84 54 79 73 67 68 18 13 2 0 11 9 3 15 19 15 1 2 0 12 16 14 17 4 0 0 0 0 0 0 0 0 1 18 27 6 11 10 5 42 11 29 0 1
103 79 66 114 77 82 57 71 52 17 37 0 1 19 12 5 2 12 5 5 7 13 17 19 15 6 1 1 0 0 0 0 0 0 2 12 20 3 1 10 2 2 33 6 4 21 0
104 66 48 119 71 101 69 48 15 3 18 1 1 8 36 19 10 2 4 7 9 5 10 25 16 2 0 0 0 0 0 14 0 0 11 9 13 6 2 27 18 13 1 3 6 2 0
96 47 39 72 71 99 42 61 24 10 27 0 0 11 3 2 4 5 7 7 8 5 4 9 15 2 0 0 0 1 0 2 0 1 16 5 5 7 1 1 0 1 0 2 6 0 0
108 54 39 40 78 78 48 20 47 17 0 0 0 0 3 0 0 5 7 12 8 5 7 20 3 0 0 0 0 0 0 0 5 0 1 1 6 12 7 0 8 0 0 4 0 0 0
90 46 38 37 69 65 55 32 53 18 0 4 0 0 0 7 0 4 4 1 0 2 1 0 9 1 0 0 2 26 0 0 2 0 0 0 0 9 0 4 1 0 1 0 0 0 0
75 40 36 22 62 72 63 50 34 19 12 0 0 0 0 11 1 5 0 3 0 7 2 0 0 2 0 3 0 9 17 0 11 4 0 0 0 2 0 0 0 0 0 0 0 0 0
77 40 28 46 50 76 84 40 30 13 6 0 0 0 0 7 0 0 0 0 8 2 23 19 17 0 0 0 17 37 5 30 0 0 0 0 1 16 0 0 0 0 0 0 0 0 0
95 43 32 44 64 66 79 35 28 15 6 0 0 0 0 0 0 0 0 8 10 0 0 5 0 0 0 0 19 10 0 3 0 0 0 0 1 20 0 0 0 0 0 0 0 0 0
88 57 31 28 54 71 72 36 29 17 2 0 0 0 0 0 0 0 0 0 6 5 2 0 0 0 0 0 20 3 1 0 4 0 0 9 3 0 0 0 0 0 0 0 0 0 0
83 69 29 25 47 60 65 39 25 19 7 0 0 0 0 0 0 0 0 0 0 5 6 0 1 1 1 3 25 4 1 0 0 0 1 0 0 2 1 3 0 0 0 0 0 0 0
87 53 33 33 35 54 58 38 25 26 9 0 0 0 0 0 0 0 0 0 0 5 24 0 1 1 6 9 0 0 0 0 0 0 0 0 0 0 0 0 0 0 0 0 0 0 0